FW4331 Weather Reports


Display with metric or nautical units.
time (UTC)temp
F
wind
direction
speed
MPH
gust
MPH
rain 1hr
in
rain 24hr
in
rain mn
in
humidity
%
barometer
mb
20200222130533 27 141 0.0 0.0 0.00 0.00 0.00 45 1028.3
20200222130041 26 113 0.0 0.0 0.00 0.00 0.00 46 1028.2
20200222125534 25 106 0.0 0.0 0.00 0.00 0.00 48 1028.3
20200222125043 24 107 0.0 0.0 0.00 0.00 0.00 48 1028.2
20200222124604 23 121 0.0 0.0 0.00 0.00 0.00 50 1028.1
20200222124039 22 121 0.0 0.0 0.00 0.00 0.00 51 1028.1
20200222123534 22 121 0.0 0.0 0.00 0.00 0.00 53 1027.9
20200222123109 21 117 0.0 0.0 0.00 0.00 0.00 55 1028.0
20200222122606 21 117 0.0 0.0 0.00 0.00 0.00 55 1027.9
20200222122032 21 134 0.0 0.0 0.00 0.00 0.00 55 1027.9
20200222121658 21 184 0.0 0.0 0.00 0.00 0.00 54 1027.9
20200222120536 20 184 0.0 0.0 0.00 0.00 0.00 54 1027.8
20200222120108 20 117 0.0 0.0 0.00 0.00 0.00 53 1027.7
20200222115531 20 121 0.0 0.0 0.00 0.00 0.00 53 1027.7
20200222115031 20 122 0.0 2.0 0.00 0.00 0.00 51 1027.7
20200222114533 21 122 1.0 2.0 0.00 0.00 0.00 51 1027.7
20200222114030 21 198 0.0 1.0 0.00 0.00 0.00 47 1027.6
20200222113533 21 289 0.0 1.0 0.00 0.00 0.00 47 1027.6
20200222113037 21 261 0.0 1.0 0.00 0.00 0.00 49 1027.6
20200222112530 20 245 0.0 0.0 0.00 0.00 0.00 51 1027.4
20200222112034 20 232 0.0 0.0 0.00 0.00 0.00 51 1027.5
20200222111530 20 231 0.0 1.0 0.00 0.00 0.00 51 1027.6
20200222110535 20 221 0.0 1.0 0.00 0.00 0.00 51 1027.5
20200222110050 20 243 0.0 0.0 0.00 0.00 0.00 52 1027.5
20200222105553 20 222 0.0 0.0 0.00 0.00 0.00 52 1027.4
20200222105029 20 226 0.0 2.0 0.00 0.00 0.00 53 1027.4
20200222104530 20 212 0.0 2.0 0.00 0.00 0.00 53 1027.3
20200222104028 20 200 0.0 0.0 0.00 0.00 0.00 55 1027.2
20200222103533 20 168 0.0 0.0 0.00 0.00 0.00 56 1027.3
20200222103116 20 168 0.0 0.0 0.00 0.00 0.00 54 1027.4
20200222102526 21 168 0.0 0.0 0.00 0.00 0.00 51 1027.4
20200222102025 21 153 0.0 0.0 0.00 0.00 0.00 51 1027.3
20200222101532 21 153 0.0 0.0 0.00 0.00 0.00 51 1027.3
20200222100523 22 147 0.0 0.0 0.00 0.00 0.00 48 1027.3
20200222100036 22 260 0.0 0.0 0.00 0.00 0.00 45 1027.3
20200222095525 22 260 0.0 0.0 0.00 0.00 0.00 44 1027.3
20200222095028 23 260 0.0 0.0 0.00 0.00 0.00 43 1027.2
20200222094617 23 260 0.0 0.0 0.00 0.00 0.00 43 1027.2
20200222094019 23 260 0.0 0.0 0.00 0.00 0.00 42 1027.2
20200222093523 23 260 0.0 0.0 0.00 0.00 0.00 41 1027.3
20200222093018 23 260 0.0 0.0 0.00 0.00 0.00 40 1027.3
20200222092522 24 260 0.0 1.0 0.00 0.00 0.00 39 1027.2
20200222092017 24 264 0.0 1.0 0.00 0.00 0.00 37 1027.2
20200222091528 24 269 1.0 1.0 0.00 0.00 0.00 37 1027.3
20200222090521 24 240 0.0 0.0 0.00 0.00 0.00 39 1027.1
20200222090032 24 221 0.0 0.0 0.00 0.00 0.00 38 1027.2
20200222085519 24 221 0.0 0.0 0.00 0.00 0.00 38 1027.1
20200222085025 24 205 0.0 0.0 0.00 0.00 0.00 38 1027.1
20200222084534 24 205 0.0 0.0 0.00 0.00 0.00 39 1027.2
20200222084015 24 204 0.0 0.0 0.00 0.00 0.00 41 1027.2
20200222083533 24 203 0.0 0.0 0.00 0.00 0.00 40 1027.2
20200222083018 24 243 0.0 1.0 0.00 0.00 0.00 37 1027.3
20200222082515 24 244 0.0 1.0 0.00 0.00 0.00 37 1027.3
20200222082017 24 222 0.0 0.0 0.00 0.00 0.00 38 1027.4
20200222081515 24 222 0.0 0.0 0.00 0.00 0.00 39 1027.5
20200222080514 24 221 0.0 0.0 0.00 0.00 0.00 37 1027.6
20200222080033 24 221 0.0 0.0 0.00 0.00 0.00 37 1027.7
20200222075510 24 223 0.0 0.0 0.00 0.00 0.00 37 1027.7
20200222075017 24 224 0.0 0.0 0.00 0.00 0.00 39 1027.8
20200222074511 25 224 0.0 0.0 0.00 0.00 0.00 38 1027.7
20200222074007 25 232 0.0 0.0 0.00 0.00 0.00 40 1027.7
20200222073507 26 276 0.0 0.0 0.00 0.00 0.00 46 1027.8
20200222073009 26 281 0.0 0.0 0.00 0.00 0.00 40 1027.9
20200222072506 26 281 0.0 0.0 0.00 0.00 0.00 40 1027.9
20200222072005 26 281 0.0 1.0 0.00 0.00 0.00 44 1028.0
20200222071525 26 281 0.0 2.0 0.00 0.00 0.00 44 1028.1
20200222070504 26 283 0.0 0.0 0.00 0.00 0.00 34 1028.1
20200222070012 25 284 0.0 0.0 0.00 0.00 0.00 34 1028.2
20200222065505 25 237 0.0 0.0 0.00 0.00 0.00 34 1028.2
20200222064106 26 235 0.0 0.0 0.00 0.00 0.00 34 1028.2
20200222063601 26 221 0.0 0.0 0.00 0.00 0.00 33 1028.3
20200222063158 26 221 0.0 0.0 0.00 0.00 0.00 33 1028.3
20200222062558 26 221 0.0 0.0 0.00 0.00 0.00 34 1028.4
20200222062104 26 221 0.0 0.0 0.00 0.00 0.00 33 1028.4
20200222061651 27 220 0.0 0.0 0.00 0.00 0.00 33 1028.4
20200222061120 27 220 0.0 0.0 0.00 0.00 0.00 32 1028.4
20200222060559 27 241 0.0 0.0 0.00 0.00 0.00 32 1028.4
20200222060245 27 243 0.0 0.0 0.00 0.00 0.00 31 1028.5
20200222055555 27 243 0.0 0.0 0.00 0.00 0.00 31 1028.7
20200222055055 27 240 0.0 0.0 0.00 0.00 0.00 31 1028.8
20200222054847 27 276 0.0 1.0 0.00 0.00 0.00 31 1028.8
20200222054053 27 282 0.0 1.0 0.00 0.00 0.00 32 1028.8
20200222053553 26 254 0.0 0.0 0.00 0.00 0.00 33 1028.9
20200222053211 27 254 0.0 0.0 0.00 0.00 0.00 34 1028.9
20200222052553 27 254 0.0 0.0 0.00 0.00 0.00 33 1029.0
20200222052055 27 255 0.0 0.0 0.00 0.00 0.00 34 1029.0
20200222051612 26 221 0.0 0.0 0.00 0.00 0.00 34 1029.0
20200222051052 26 221 0.0 0.0 0.00 0.00 0.00 35 1028.9
20200222050552 26 221 0.0 0.0 0.00 0.00 0.00 35 1028.9
20200222050158 27 221 0.0 0.0 0.00 0.00 0.00 34 1029.0
20200222045549 27 229 0.0 0.0 0.00 0.00 0.00 34 1029.1
20200222045048 27 239 0.0 0.0 0.00 0.00 0.00 34 1029.0
20200222044717 27 240 0.0 0.0 0.00 0.00 0.00 35 1029.1
20200222044045 26 279 0.0 0.0 0.00 0.00 0.00 38 1029.2
20200222043544 27 279 0.0 0.0 0.00 0.00 0.00 38 1029.2
20200222043121 27 279 0.0 0.0 0.00 0.00 0.00 39 1029.2
20200222042540 27 279 0.0 0.0 0.00 0.00 0.00 40 1029.2
20200222042048 27 279 0.0 0.0 0.00 0.00 0.00 42 1029.3
20200222041545 27 280 0.0 0.0 0.00 0.00 0.00 46 1029.4
20200222041036 27 281 0.0 0.0 0.00 0.00 0.00 46 1029.5
20200222040545 27 281 0.0 0.0 0.00 0.00 0.00 48 1029.5
20200222040221 27 281 0.0 0.0 0.00 0.00 0.00 51 1029.6
20200222035545 27 281 0.0 0.0 0.00 0.00 0.00 53 1029.6
20200222035036 27 281 0.0 0.0 0.00 0.00 0.00 52 1029.7
20200222034606 27 275 0.0 0.0 0.00 0.00 0.00 50 1029.7
20200222034028 27 285 0.0 0.0 0.00 0.00 0.00 51 1029.7
20200222033527 27 274 0.0 0.0 0.00 0.00 0.00 49 1029.8
20200222033037 27 274 0.0 1.0 0.00 0.00 0.00 45 1029.9
20200222032528 28 274 0.0 2.0 0.00 0.00 0.00 43 1029.9
20200222032022 28 284 0.0 4.0 0.00 0.00 0.00 39 1029.9
20200222031554 28 292 2.0 4.0 0.00 0.00 0.00 40 1029.9
20200222031025 27 295 0.0 1.0 0.00 0.00 0.00 48 1030.0
20200222030521 27 295 0.0 1.0 0.00 0.00 0.00 48 1030.0
20200222030023 27 295 0.0 1.0 0.00 0.00 0.00 46 1030.1
20200222025518 27 295 0.0 1.0 0.00 0.00 0.00 47 1030.0
20200222025016 28 286 0.0 1.0 0.00 0.00 0.00 44 1030.1
20200222024534 28 283 0.0 1.0 0.00 0.00 0.00 45 1030.1
20200222024013 27 290 0.0 0.0 0.00 0.00 0.00 44 1030.0
20200222023516 27 290 0.0 1.0 0.00 0.00 0.00 46 1030.2
20200222023029 27 290 0.0 1.0 0.00 0.00 0.00 46 1030.1
20200222022509 27 291 0.0 1.0 0.00 0.00 0.00 50 1030.1
20200222022008 27 270 0.0 0.0 0.00 0.00 0.00 51 1030.1
20200222021536 27 270 0.0 0.0 0.00 0.00 0.00 52 1030.1
20200222021006 28 270 0.0 0.0 0.00 0.00 0.00 48 1030.2
20200222020504 27 270 0.0 0.0 0.00 0.00 0.00 47 1030.2
20200222020012 27 266 0.0 0.0 0.00 0.00 0.00 49 1030.2
20200222015501 28 256 0.0 0.0 0.00 0.00 0.00 46 1030.2
20200222015001 28 256 0.0 0.0 0.00 0.00 0.00 40 1030.2
20200222014506 28 255 0.0 0.0 0.00 0.00 0.00 40 1030.2
20200222014001 28 255 0.0 0.0 0.00 0.00 0.00 37 1030.3
20200222013501 28 254 0.0 0.0 0.00 0.00 0.00 40 1030.1
20200222013001 29 253 0.0 0.0 0.00 0.00 0.00 36 1030.3
20200222012503 29 269 0.0 0.0 0.00 0.00 0.00 34 1030.3
20200222012005 29 270 0.0 0.0 0.00 0.00 0.00 35 1030.4
20200222011602 29 271 0.0 0.0 0.00 0.00 0.00 39 1030.5
20200222011100 29 271 0.0 0.0 0.00 0.00 0.00 37 1030.4
20200222010501 29 271 0.0 0.0 0.00 0.00 0.00 37 1030.5
20200222010005 30 271 0.0 0.0 0.00 0.00 0.00 35 1030.4
20200222005600 29 271 0.0 0.0 0.00 0.00 0.00 35 1030.5
20200222005117 29 247 0.0 0.0 0.00 0.00 0.00 33 1030.5
20200222005021 29 247 0.0 0.0 0.00 0.00 0.00 30 1030.5
20200222004100 30 247 0.0 0.0 0.00 0.00 0.00 30 1030.5
20200222003600 30 247 0.0 0.0 0.00 0.00 0.00 32 1030.5
20200222003137 30 247 0.0 0.0 0.00 0.00 0.00 32 1030.4
20200222002613 30 247 0.0 0.0 0.00 0.00 0.00 33 1030.4
20200222002059 31 245 0.0 0.0 0.00 0.00 0.00 33 1030.4
20200222001653 31 149 0.0 0.0 0.00 0.00 0.00 28 1030.5
20200222001108 31 149 0.0 0.0 0.00 0.00 0.00 28 1030.5
20200222000213 31 150 0.0 0.0 0.00 0.00 0.00 30 1030.5
20200221235603 31 150 0.0 0.0 0.00 0.00 0.00 29 1030.5
20200221235102 32 150 0.0 1.0 0.00 0.00 0.00 29 1030.5
20200221234630 32 150 0.0 1.0 0.00 0.00 0.00 27 1030.4
20200221234101 32 134 1.0 1.0 0.00 0.00 0.00 26 1030.4
20200221233559 32 43 0.0 1.0 0.00 0.00 0.00 26 1030.4
20200221233211 33 43 0.0 1.0 0.00 0.00 0.00 24 1030.4
20200221232557 33 44 0.0 0.0 0.00 0.00 0.00 24 1030.4
20200221232106 33 7 0.0 0.0 0.00 0.00 0.00 24 1030.3
20200221231636 34 7 0.0 0.0 0.00 0.00 0.00 24 1030.3
20200221231112 34 7 0.0 0.0 0.00 0.00 0.00 22 1030.4
20200221230130 35 5 0.0 0.0 0.00 0.00 0.00 22 1030.2
20200221225558 35 5 0.0 0.0 0.00 0.00 0.00 21 1030.3
20200221225115 35 6 0.0 1.0 0.00 0.00 0.00 21 1030.4
20200221224625 36 5 0.0 4.0 0.00 0.00 0.00 21 1030.5
20200221224052 36 13 0.0 4.0 0.00 0.00 0.00 20 1030.3
20200221223548 37 38 0.0 3.0 0.00 0.00 0.00 19 1030.4
20200221223123 37 289 1.0 3.0 0.00 0.00 0.00 19 1030.5
20200221222544 38 323 0.0 3.0 0.00 0.00 0.00 18 1030.3
20200221222107 38 286 1.0 3.0 0.00 0.00 0.00 18 1030.3
20200221221634 39 255 0.0 3.0 0.00 0.00 0.00 17 1030.4
20200221221041 39 270 0.0 2.0 0.00 0.00 0.00 18 1030.4
20200221220207 38 270 1.0 4.0 0.00 0.00 0.00 18 1030.5
20200221215545 38 17 1.0 8.0 0.00 0.00 0.00 18 1030.5
20200221215031 38 324 3.0 8.0 0.00 0.00 0.00 18 1030.4
20200221214606 38 326 1.0 5.0 0.00 0.00 0.00 19 1030.4
20200221214029 38 11 2.0 8.0 0.00 0.00 0.00 18 1030.5
20200221213534 38 301 3.0 8.0 0.00 0.00 0.00 18 1030.6
20200221213120 38 331 4.0 8.0 0.00 0.00 0.00 18 1030.6
20200221212538 38 41 3.0 7.0 0.00 0.00 0.00 16 1030.6
20200221212024 39 79 2.0 7.0 0.00 0.00 0.00 18 1030.7
20200221211528 39 322 0.0 7.0 0.00 0.00 0.00 18 1030.8
20200221211030 39 37 2.0 7.0 0.00 0.00 0.00 17 1030.7
20200221210015 38 6 5.0 11.0 0.00 0.00 0.00 17 1030.8
20200221205512 38 45 3.0 7.0 0.00 0.00 0.00 19 1030.8
20200221205017 39 79 2.0 5.0 0.00 0.00 0.00 18 1030.7
20200221204513 38 20 0.0 8.0 0.00 0.00 0.00 19 1030.8
20200221204006 37 293 1.0 8.0 0.00 0.00 0.00 20 1030.9
20200221203505 37 258 3.0 10.0 0.00 0.00 0.00 20 1030.9
20200221203006 37 359 3.0 10.0 0.00 0.00 0.00 20 1031.1
20200221202105 37 14 4.0 12.0 0.00 0.00 0.00 20 1031.2
20200221201635 36 13 4.0 13.0 0.00 0.00 0.00 20 1031.2
20200221201055 37 27 4.0 10.0 0.00 0.00 0.00 19 1031.2
20200221200212 36 271 6.0 12.0 0.00 0.00 0.00 19 1031.4
20200221195551 36 55 4.0 9.0 0.00 0.00 0.00 20 1031.4
20200221195055 35 359 4.0 13.0 0.00 0.00 0.00 21 1031.5
20200221194633 36 305 8.0 13.0 0.00 0.00 0.00 22 1031.5
20200221194109 36 336 4.0 11.0 0.00 0.00 0.00 22 1031.5
20200221193555 36 326 3.0 11.0 0.00 0.00 0.00 22 1031.4
20200221193236 35 11 4.0 13.0 0.00 0.00 0.00 23 1031.4
20200221192603 35 27 8.0 13.0 0.00 0.00 0.00 24 1031.4
20200221192048 35 41 7.0 12.0 0.00 0.00 0.00 24 1031.5
20200221191651 35 333 5.0 12.0 0.00 0.00 0.00 23 1031.6
20200221191102 35 23 5.0 9.0 0.00 0.00 0.00 25 1031.6
20200221190136 34 333 4.0 12.0 0.00 0.00 0.00 25 1031.8
20200221185544 34 340 4.0 12.0 0.00 0.00 0.00 26 1031.8
20200221185044 33 55 3.0 12.0 0.00 0.00 0.00 26 1032.0
20200221184547 33 326 5.0 12.0 0.00 0.00 0.00 25 1032.0
20200221184045 34 343 2.0 13.0 0.00 0.00 0.00 24 1032.1
20200221183554 34 21 4.0 13.0 0.00 0.00 0.00 26 1032.1
20200221183125 34 37 7.0 13.0 0.00 0.00 0.00 26 1032.2
20200221182542 33 58 5.0 13.0 0.00 0.00 0.00 25 1032.2
20200221182042 33 56 4.0 15.0 0.00 0.00 0.00 26 1032.3
20200221181556 33 19 7.0 15.0 0.00 0.00 0.00 26 1032.4
20200221181108 33 108 5.0 11.0 0.00 0.00 0.00 26 1032.5
20200221180213 32 6 2.0 12.0 0.00 0.00 0.00 26 1032.5
20200221175540 33 313 6.0 12.0 0.00 0.00 0.00 27 1032.6
20200221175039 33 58 4.0 9.0 0.00 0.00 0.00 27 1032.6
20200221174621 32 11 3.0 13.0 0.00 0.00 0.00 28 1032.6
20200221174038 32 297 6.0 13.0 0.00 0.00 0.00 30 1032.7
20200221173545 31 332 4.0 13.0 0.00 0.00 0.00 29 1032.8
20200221173059 31 4 6.0 13.0 0.00 0.00 0.00 29 1033.0
20200221172539 31 360 5.0 12.0 0.00 0.00 0.00 30 1033.1
20200221172035 31 57 6.0 13.0 0.00 0.00 0.00 29 1033.1
20200221171601 31 338 7.0 13.0 0.00 0.00 0.00 29 1033.1
20200221171042 31 22 5.0 19.0 0.00 0.00 0.00 31 1033.3
20200221170125 30 18 9.0 19.0 0.00 0.00 0.00 29 1033.5
20200221165535 30 323 4.0 11.0 0.00 0.00 0.00 32 1033.6
20200221165034 30 354 4.0 10.0 0.00 0.00 0.00 31 1033.6
20200221164620 29 14 3.0 14.0 0.00 0.00 0.00 32 1033.6
20200221164046 30 339 6.0 14.0 0.00 0.00 0.00 33 1033.7
20200221163538 29 14 3.0 13.0 0.00 0.00 0.00 33 1033.7
20200221163115 29 42 6.0 13.0 0.00 0.00 0.00 32 1033.7
20200221162536 29 15 3.0 11.0 0.00 0.00 0.00 33 1033.6
20200221162033 29 23 5.0 12.0 0.00 0.00 0.00 34 1033.7
20200221161545 28 319 6.0 13.0 0.00 0.00 0.00 34 1033.9
20200221161031 28 311 7.0 14.0 0.00 0.00 0.00 35 1033.9
20200221160047 28 318 6.0 13.0 0.00 0.00 0.00 36 1033.9
20200221155557 27 318 6.0 12.0 0.00 0.00 0.00 35 1033.9
20200221155030 27 27 7.0 12.0 0.00 0.00 0.00 36 1033.9
20200221154549 26 27 5.0 14.0 0.00 0.00 0.00 36 1033.9
20200221154031 27 323 8.0 16.0 0.00 0.00 0.00 36 1033.9
20200221153530 27 10 8.0 16.0 0.00 0.00 0.00 36 1033.9
20200221153041 26 58 2.0 14.0 0.00 0.00 0.00 37 1033.7
20200221152529 26 13 7.0 19.0 0.00 0.00 0.00 38 1033.8
20200221152031 25 29 7.0 19.0 0.00 0.00 0.00 38 1033.6
20200221151605 25 20 8.0 19.0 0.00 0.00 0.00 39 1033.7
20200221151033 25 30 9.0 17.0 0.00 0.00 0.00 38 1033.7
20200221150044 25 25 5.0 16.0 0.00 0.00 0.00 39 1033.7
20200221145534 25 34 6.0 15.0 0.00 0.00 0.00 39 1033.6
20200221145053 25 25 6.0 19.0 0.00 0.00 0.00 39 1033.7
20200221144637 25 44 8.0 19.0 0.00 0.00 0.00 39 1033.7
20200221144031 24 18 5.0 18.0 0.00 0.00 0.00 40 1033.6
20200221143526 24 333 10.0 19.0 0.00 0.00 0.00 39 1033.6
20200221143054 24 65 9.0 17.0 0.00 0.00 0.00 40 1033.8
20200221142525 24 6 9.0 17.0 0.00 0.00 0.00 40 1033.6
20200221142037 24 316 6.0 17.0 0.00 0.00 0.00 40 1033.7
20200221141541 24 245 10.0 18.0 0.00 0.00 0.00 40 1034.0
20200221141024 24 344 8.0 18.0 0.00 0.00 0.00 40 1033.9
20200221140132 24 6 10.0 18.0 0.00 0.00 0.00 41 1034.0
20200221135520 24 334 6.0 15.0 0.00 0.00 0.00 41 1033.8
20200221135019 24 16 6.0 21.0 0.00 0.00 0.00 41 1033.8
20200221134518 23 37 8.0 21.0 0.00 0.00 0.00 41 1033.7
20200221134017 23 20 9.0 17.0 0.00 0.00 0.00 41 1033.7
20200221133522 23 5 11.0 17.0 0.00 0.00 0.00 41 1033.6
20200221133035 23 3 8.0 15.0 0.00 0.00 0.00 41 1033.6
20200221132530 23 36 5.0 10.0 0.00 0.00 0.00 42 1033.5
20200221132022 23 348 6.0 12.0 0.00 0.00 0.00 42 1033.5
20200221131521 23 309 5.0 17.0 0.00 0.00 0.00 42 1033.3